Location: Fort Wayne
(41.1310°N, 85.1290°W)
Time: 02:39:48
(UTC-04:00)

Cosmos 1000 Rocket - Visible Passes

Search period start: 25 April 2017 00:00
Search period end: 05 May 2017 00:00
Orbit: 954 x 992 km, 82.9° (Epoch: 23 April)

Date Brightness Start Highest point End Pass type
(mag) Time Alt. Az. Time Alt. Az. Time Alt. Az.
25 Apr 7.0 04:12:12 10° ESE 04:15:32 15° E 04:18:54 10° NE visible
25 Apr 4.5 05:53:54 10° SSW 06:00:02 76° W 06:06:16 10° N visible
26 Apr 6.3 04:34:42 10° SE 04:39:47 28° E 04:44:55 10° NNE visible
27 Apr 5.3 04:58:18 10° SSE 05:04:11 50° E 05:10:10 10° NNE visible
28 Apr 7.1 03:42:13 10° E 03:44:27 12° ENE 03:46:43 10° ENE visible
28 Apr 4.5 05:22:36 10° S 05:28:46 89° E 05:35:02 10° N visible
29 Apr 6.5 04:04:00 10° SE 04:08:39 23° E 04:13:21 10° NE visible
29 Apr 4.7 05:47:32 10° SSW 05:53:31 52° WNW 05:59:35 10° N visible
30 Apr 5.6 04:27:19 10° SSE 04:33:01 41° E 04:38:46 10° NNE visible
01 May 4.6 04:51:42 12° S 04:57:32 74° E 05:03:45 10° N visible
02 May 6.7 03:33:26 10° SE 03:37:32 19° E 03:41:41 10° NE visible
02 May 4.5 05:16:40 13° SSW 05:22:13 63° W 05:28:25 10° N visible
03 May 5.9 03:56:58 13° SSE 04:01:50 34° E 04:07:21 10° NNE visible
03 May 5.2 05:41:36 11° SW 05:47:04 35° WNW 05:52:46 10° N visible
04 May 4.9 04:21:51 19° SSE 04:26:18 61° E 04:32:27 10° NNE visible
